This is the latest recevied weather packets stored in our database for station/object WD4IXD. If no packets are shown the sender has not sent any weather packets the latest 1 day(s).
| Time | Temp. | Humidity | Pressure | Rain* | Wind** | Luminosity | Snow |
|---|---|---|---|---|---|---|---|
| 1836274689 | 16.67° C | 46% | 1021.3 hPa | 0 mm | 2.68 m/s, 149° | 0 W/m² | - |
| 1836274539 | 16.67° C | 48% | 1021.3 hPa | 0 mm | 1.34 m/s, 104° | 0 W/m² | - |
| 1836274377 | 17.22° C | 43% | 1021.3 hPa | 0 mm | 2.24 m/s, 152° | 0 W/m² | - |
| 1836274228 | 16.67° C | 47% | 1021.5 hPa | 0 mm | 1.34 m/s, 120° | 0 W/m² | - |
| 1836274089 | 17.78° C | 42% | 1021.2 hPa | 0 mm | 1.34 m/s, 124° | 0 W/m² | - |
| 1778037015 | 0.56° C | 95% | 1016.3 hPa | 0 mm | 0 m/s | 0 W/m² | - |
| 1778036715 | 0.56° C | 95% | 1016.1 hPa | 0 mm | 0 m/s | 0 W/m² | - |
| 1778036403 | 0.56° C | 95% | 1016 hPa | 0 mm | 0 m/s | 0 W/m² | - |
| 1778036104 | 0.56° C | 95% | 1015.9 hPa | 0 mm | 0 m/s | 0 W/m² | - |
| 1778035815 | 0.56° C | 94% | 1015.8 hPa | 0.25 mm | 0 m/s | 0 W/m² | - |
| 1778035503 | 0.56° C | 94% | 1015.8 hPa | 0.25 mm | 0 m/s | 0 W/m² | - |
| 1778035215 | 0.56° C | 94% | 1015.7 hPa | 0.25 mm | 0 m/s | 0 W/m² | - |
| 1778034904 | 0.56° C | 94% | 1015.7 hPa | 0.25 mm | 0 m/s | 0 W/m² | - |
| 1778034615 | 0.56° C | 94% | 1015.6 hPa | 0.25 mm | 0 m/s | 0 W/m² | - |
| 1778034304 | 0.56° C | 94% | 1015.5 hPa | 0.25 mm | 1.34 m/s, 310° | 0 W/m² | - |
| 1778034015 | 0.56° C | 94% | 1015.2 hPa | 0.25 mm | 1.34 m/s, 310° | 0 W/m² | - |
| 1778033704 | 0.56° C | 94% | 1015.1 hPa | 0.25 mm | 1.34 m/s, 329° | 0 W/m² | - |
| 1778033415 | 0.56° C | 94% | 1015.1 hPa | 0.25 mm | 0.89 m/s, 308° | 0 W/m² | - |
| 1778033104 | 0.56° C | 94% | 1015.1 hPa | 0.25 mm | 1.34 m/s, 334° | 0 W/m² | - |
| 1778032815 | 0.56° C | 94% | 1015.1 hPa | 0.51 mm | 0.89 m/s, 314° | 0 W/m² | - |
| 1778032504 | 0.56° C | 94% | 1015.1 hPa | 0.51 mm | 0.89 m/s, 321° | 0 W/m² | - |
| 1778032214 | 0.56° C | 94% | 1015.1 hPa | 0.25 mm | 1.34 m/s, 312° | 0 W/m² | - |
| 1778031904 | 0.56° C | 94% | 1015 hPa | 0.25 mm | 1.34 m/s, 306° | 0 W/m² | - |
| 1778031615 | 0.56° C | 94% | 1014.9 hPa | 0.25 mm | 0.89 m/s, 311° | 0 W/m² | - |
| 1778031304 | 0.56° C | 94% | 1014.9 hPa | 0.25 mm | 0.89 m/s, 329° | 0 W/m² | - |
* Rain latest hour (hover to see other rain measurements)
** Current wind speed in m/s (hover to see current wind gust speed)